Location: Nitra
(48.3167°N, 18.0833°E)
Time: 03:35:25
(UTC+01:00)

STARLINK-1673 - Pass Details

Date: 24 September 2020
Orbit: 549 x 551 km, 53.0° (Epoch: 29 October)

Event Time Altitude Azimuth Distance (km) Brightness Sun altitude
Exits shadow 05:08:05 17° 302° (WNW) 1,397 5.3 -15.5°
Maximum altitude 05:11:01 52° 14° (NNE) 676 4.2 -15.0°
Drops below altitude 10° 05:15:01 10° 92° (E) 1,799 7.5 -14.4°
Sets 05:17:17 0° 97° (E) 2,689 8.5 -14.0°
